Tracking 29594 objects as of 20-Sep-2024
HD Live streaming from Space Station
objects crossing your sky now

SL-8 R/B

Track SL-8 R/B now!
10-day predictions


NORAD ID: 14547
Int'l Code: 1983-120B
Perigee: 946.2 km
Apogee: 1,015.0 km
Inclination: 82.9 °
Period: 104.6 minutes
Semi major axis: 7351 km
RCS: 4.4678 m2 (large)
Launch date: December 8, 1983
Source: Commonwealth of Independent States (former USSR) (CIS)
Launch site: PLESETSK MISSILE AND SPACE COMPLEX (PKMTR)

Note: This is a ROCKET BODY
Your satellite tracking list
Your tracking list is empty




NASA's NSSDC Master Catalog

Two Line Element Set (TLE):
1 14547U 83120B   24263.65343842  .00000084  00000-0  69116-4 0  9996
2 14547  82.9270 277.5320 0046767   7.0925 353.0883 13.77312792805140
Source of the keplerian elements: AFSPC